Wetbulb
43.21 43.28 43.36 43.27 43.03 43.13 42.74 42.50 41.89 41.89 41.49 41.35 41.16 41.36 41.70 42.02 43.03 38.51 35.33 37.45 34.95 28.66 29.16 30.63 30.85 27.75 27.40 26.70 22.61 27.49 26.35 27.34 25.60 21.67 20.14 20.53 19.59 22.06 23.22 24.73 23.75 21.85 21.90 20.46 23.61 19.03 16.50 32.37 32.17 27.82 31.85 35.68 37.20 37.83
43.24 43.51 43.57 43.43 43.34 42.88 42.38 42.32 41.98 41.68 41.45 41.34 41.09 41.15 41.34 41.43 42.79 39.38 33.99 36.84 38.45 32.18 29.64 33.09 33.85 34.37 32.50 31.93 28.47 28.19 26.65 26.34 27.05 23.84 23.92 24.19 21.06 23.41 24.16 19.30 28.00 21.53 25.61 22.91 24.51 23.71 31.58 34.07 32.46 34.38 35.37 34.99 37.50 37.51
44.29 44.09 43.83 43.52 43.27 43.13 42.44 41.98 41.89 41.65 41.38 41.22 41.07 40.87 40.92 40.90 42.04 38.99 35.37 34.50 31.64 27.65 27.77 28.19 30.39 32.78 34.16 34.02 35.25 27.54 29.40 30.04 29.77 29.72 27.19 26.03 21.91 25.64 20.66 21.68 25.27 28.98 31.35 26.47 26.69 29.05 30.79 34.54 34.77 35.12 36.27 36.71 38.14 37.38
44.26 43.93 43.93 43.96 43.55 43.46 43.00 42.56 42.28 42.02 41.06 40.85 40.84 40.72 40.90 41.34 41.88 39.32 36.61 37.59 31.52 26.56 22.23 28.30 33.06 31.07 34.67 34.70 33.66 34.03 32.55 33.23 30.86 28.94 27.63 25.97 23.40 28.61 24.47 26.33 25.15 27.77 29.53 27.86 27.69 30.62 32.07 33.45 33.83 34.80 35.88 37.40 37.25 37.07
44.05 44.01 44.08 44.16 44.03 43.61 43.42 42.91 42.40 41.85 40.87 40.63 40.69 40.68 40.80 41.39 42.19 38.15 38.16 38.02 36.70 29.10 22.41 24.71 30.22 32.05 32.94 34.07 34.11 33.14 32.40 30.50 28.12 27.92 26.44 24.36 27.54 26.82 28.40 28.97 25.63 29.93 27.81 25.39 25.79 31.33 31.52 32.85 33.82 35.67 34.90 35.34 35.75 35.48
43.99 43.99 44.09 44.12 44.09 43.71 43.53 43.06 42.19 41.55 40.78 40.62 40.62 40.62 40.80 41.59 41.72 32.75 27.50 34.46 38.48 33.21 25.89 21.71 28.85 29.91 32.16 33.05 32.73 32.52 32.99 31.19 29.47 27.83 26.50 28.43 29.59 27.99 25.09 23.62 29.20 31.10 32.91 32.52 30.21 34.02 34.34 34.81 34.46 35.87 35.16 35.79 36.58 36.27
43.92 44.14 44.21 44.24 44.12 44.00 43.55 42.83 42.05 41.53 40.83 40.53 40.49 40.47 41.33 42.03 38.39 31.53 30.96 36.26 36.80 32.85 26.39 23.63 25.53 30.76 30.99 31.06 31.27 31.99 32.86 30.95 30.21 27.64 28.22 27.42 28.78 28.76 27.25 23.22 29.17 32.25 34.02 33.57 35.06 35.19 32.74 33.08 31.57 34.52 34.41 35.42 36.53 36.50
43.97 44.03 44.03 44.07 44.22 44.22 43.85 43.15 42.06 41.43 40.83 40.44 40.45 40.77 40.44 40.03 38.09 33.43 35.97 39.02 33.24 28.27 26.68 22.49 25.21 27.70 30.31 27.68 28.92 29.78 29.45 31.76 31.34 30.09 30.60 28.15 29.98 30.05 24.25 28.40 30.64 33.26 34.31 34.10 33.52 34.46 33.46 33.96 34.17 34.24 35.06 35.01 34.12 34.30
43.86 43.89 43.96 43.87 44.17 44.18 43.90 43.18 42.05 41.37 40.60 40.40 40.29 38.91 34.81 33.16 30.09 33.65 38.84 35.01 32.37 29.54 23.69 24.41 21.55 21.22 29.99 27.50 27.89 29.70 27.74 26.94 30.34 28.29 28.98 29.33 27.15 23.79 27.34 28.92 29.84 31.71 32.40 32.95 33.60 33.67 33.49 32.80 33.00 33.80 34.09 33.90 33.21 33.95
43.65 43.70 43.74 43.74 43.97 44.09 43.84 43.21 42.02 40.99 40.28 38.62 33.37 27.78 25.39 33.08 39.99 35.87 28.07 26.27 25.57 23.79 26.06 24.62 25.39 24.13 27.62 27.15 27.73 27.40 27.08 24.48 24.13 27.41 29.69 25.89 25.60 28.95 30.70 31.48 32.21 32.21 34.18 34.80 31.87 31.02 32.06 31.86 32.68 33.19 33.67 34.92 34.83 34.59
43.82 43.85 43.78 43.77 43.85 44.07 43.97 43.03 41.91 40.38 37.23 29.79 25.61 25.77 32.72 36.71 31.19 24.20 20.07 22.17 22.27 22.13 24.16 25.97 25.90 24.63 29.06 25.64 25.41 24.94 24.30 25.02 20.85 24.74 25.71 23.22 23.66 28.83 31.59 32.56 33.42 33.24 34.50 35.05 34.82 34.42 34.14 33.76 33.07 33.23 33.69 34.52 34.98 34.78
44.32 44.09 43.94 43.69 43.71 44.07 43.82 42.77 41.43 33.54 30.85 31.68 32.52 36.11 33.09 25.90 22.37 17.48 15.71 21.41 23.00 22.79 25.35 25.79 26.52 26.91 27.82 28.38 26.69 26.17 24.21 24.31 19.53 26.85 22.85 20.22 26.30 29.62 31.71 32.37 33.11 33.34 33.45 33.91 35.30 35.64 35.68 35.25 35.41 34.99 34.74 34.65 34.92 34.99
44.05 44.23 44.07 43.89 43.69 44.18 43.53 42.38 40.37 37.99 37.97 33.74 31.15 24.28 23.94 20.45 13.41 14.58 8.60 19.20 20.18 25.14 26.94 26.69 25.98 26.80 27.47 28.28 26.24 25.49 20.92 21.01 26.35 21.81 21.07 24.66 28.26 30.75 32.12 32.99 33.43 34.21 34.18 33.81 34.04 34.35 34.13 34.13 34.60 34.53 34.03 34.98 34.72 34.74
43.87 43.93 43.90 43.89 43.68 43.93 43.52 42.11 40.40 38.38 33.51 25.41 21.39 12.51 18.93 14.84 18.34 20.14 21.90 23.86 26.72 26.86 26.70 26.29 25.80 26.41 25.70 26.12 25.51 21.34 24.29 24.23 19.04 17.86 19.76 27.02 29.24 31.13 32.09 32.93 32.54 32.70 33.38 33.23 33.58 33.89 34.15 34.29 34.09 33.56 33.21 33.99 31.13 33.71
43.94 43.93 43.78 43.76 43.81 43.93 43.30 41.78 40.23 35.92 31.31 26.42 26.13 15.41 20.03 24.50 25.10 25.29 26.04 25.96 26.94 28.05 27.32 26.27 25.78 26.11 25.34 23.80 24.79 23.33 19.12 16.61 20.26 21.33 25.59 30.04 30.98 31.17 31.97 32.23 32.39 32.88 33.27 33.38 33.82 33.56 33.95 33.84 33.18 33.61 33.70 34.79 34.32 32.62
43.72 43.41 42.10 43.52 43.85 44.11 42.94 40.69 37.26 35.77 32.42 28.54 27.58 25.15 26.74 24.87 24.09 24.96 25.60 26.15 29.13 27.77 28.09 27.71 24.35 20.90 21.16 23.74 21.51 19.24 19.04 17.89 23.03 27.55 30.68 31.00 31.20 32.08 32.52 32.82 32.87 33.17 33.34 33.76 34.33 34.04 33.84 34.01 33.30 34.20 34.36 33.32 30.06 29.93
43.36 39.84 43.46 43.75 43.92 43.36 40.69 36.07 34.09 29.38 28.21 26.35 25.22 29.68 27.32 26.08 25.67 26.33 27.55 28.01 29.63 28.81 26.85 25.93 20.01 21.06 23.33 20.29 20.30 24.39 21.67 26.11 29.27 29.96 30.87 31.07 31.68 32.48 33.21 32.60 32.96 33.25 33.47 34.27 34.41 34.36 33.90 34.40 34.85 34.57 33.56 32.89 32.36 31.28
40.35 42.33 43.73 43.83 43.10 38.45 34.19 34.76 31.24 28.07 24.46 26.86 25.23 27.08 27.89 28.95 27.52 27.43 28.37 28.69 29.13 28.32 27.69 26.05 27.11 22.12 19.85 19.10 21.16 26.40 27.79 28.94 29.25 30.22 31.41 32.11 32.35 32.94 32.51 32.61 32.99 33.86 33.79 34.12 34.17 34.08 34.44 34.53 33.91 33.51 32.49 31.49 31.34 30.87
42.09 42.38 43.61 43.63 37.87 33.69 30.77 31.15 32.57 24.99 26.40 28.17 28.94 28.88 27.94 28.10 29.36 30.04 29.61 29.57 30.48 30.30 29.59 26.81 24.35 22.14 23.06 25.77 26.56 28.05 28.04 28.90 29.90 30.92 31.58 32.50 32.70 32.66 32.84 33.24 33.58 33.75 33.88 33.96 34.09 34.40 33.87 33.37 33.41 32.12 31.42 31.28 29.54 28.76
43.17 43.28 43.19 40.27 39.01 31.95 27.90 28.70 32.50 27.33 24.44 27.26 28.80 27.69 27.97 27.96 28.89 29.40 29.76 28.95 29.10 28.58 26.55 24.98 25.18 27.75 27.57 28.99 29.56 31.14 31.07 31.51 30.13 29.34 30.22 32.38 33.36 32.69 33.06 33.53 33.70 33.76 33.61 33.84 33.89 31.78 32.52 31.60 31.62 31.30 30.88 29.44 28.47 27.97
42.01 42.03 40.74 39.39 32.46 33.53 30.93 29.47 26.49 27.32 27.54 26.38 28.20 27.96 26.92 27.58 27.53 27.34 27.37 29.41 26.90 26.11 25.27 28.78 29.48 31.14 31.33 31.92 31.99 32.47 31.89 31.02 30.66 31.72 32.85 31.66 33.40 33.11 33.51 34.09 34.31 34.36 33.87 33.77 33.76 32.29 32.47 31.91 31.70 31.40 30.59 29.65 29.69 29.22
38.79 40.53 33.70 33.98 31.48 31.52 30.74 31.58 28.06 28.00 26.46 26.20 25.60 26.84 24.34 22.65 23.74 25.08 28.48 25.99 25.32 28.00 29.55 30.09 30.64 31.72 30.91 30.94 32.06 31.85 32.70 32.58 32.68 31.99 28.51 29.94 31.56 31.91 32.70 33.80 33.73 33.26 33.31 33.68 34.01 33.66 32.73 32.32 31.56 31.02 30.17 29.48 28.94 28.30
38.22 35.79 32.34 31.88 28.58 27.62 27.07 30.47 26.91 25.81 21.84 24.01 25.31 23.80 23.17 23.47 25.46 28.18 24.09 26.26 27.59 30.88 32.10 32.09 32.50 33.00 31.71 32.71 32.46 32.62 33.04 32.86 32.48 32.45 32.58 32.34 33.18 33.29 32.93 33.00 32.88 32.29 32.09 33.27 33.41 33.03 31.42 30.30 29.97 29.46 29.24 28.53 27.87 27.23
36.95 31.58 28.55 27.29 27.93 24.03 28.76 26.23 29.16 26.55 25.36 24.20 23.31 21.16 23.40 24.40 26.06 24.72 23.20 26.94 29.71 30.95 30.30 31.18 31.98 30.56 30.25 30.49 30.27 31.53 32.58 32.94 32.83 32.25 32.65 32.26 31.62 31.67 31.93 32.63 33.05 33.64 34.32 34.02 32.56 31.28 29.93 29.49 27.36 28.45 27.95 27.35 26.99 26.52
27.16 25.84 27.30 23.75 27.43 22.76 20.67 23.88 25.40 25.19 20.43 23.32 23.07 21.84 23.47 26.03 22.44 21.65 23.13 25.84 28.18 29.80 31.05 31.44 30.65 30.36 29.58 30.47 31.03 31.09 32.74 32.48 31.45 31.10 31.98 31.86 32.18 30.56 30.19 31.14 32.02 33.45 33.77 31.88 30.46 29.10 28.22 28.34 28.37 27.91 27.36 26.71 25.24 22.01
24.10 25.21 24.26 22.55 22.29 20.07 20.95 19.21 21.42 20.21 21.76 21.29 23.90 25.77 26.15 22.85 18.73 18.85 23.36 28.79 30.40 30.02 30.56 29.50 29.72 29.27 29.26 30.93 30.33 29.28 30.74 32.15 32.26 31.13 32.08 31.13 31.45 31.65 30.75 29.05 29.30 30.56 32.21 32.51 30.24 28.22 27.16 26.97 27.12 26.16 25.50 25.34 22.17 23.11
22.25 22.46 26.13 27.82 26.30 24.81 21.37 22.78 25.88 24.22 19.74 19.00 21.41 20.80 20.20 15.40 16.21 21.68 27.12 28.29 30.27 30.49 30.88 32.32 31.11 30.63 30.58 30.52 30.77 31.29 30.93 32.35 32.52 32.70 32.74 31.81 32.60 33.32 32.78 30.55 29.26 31.58 31.84 31.59 30.07 28.79 27.81 27.35 27.08 24.83 24.35 25.17 23.73 23.89
26.23 26.10 22.46 23.90 21.94 23.45 16.77 18.88 18.94 20.27 22.17 24.21 24.08 17.79 17.19 18.26 20.41 25.95 28.31 29.96 31.18 30.92 29.91 30.36 31.28 31.90 31.31 31.29 30.16 28.85 27.87 27.82 27.50 28.45 28.96 28.73 28.97 30.16 30.84 31.10 31.24 27.78 31.43 31.12 30.35 29.20 28.49 26.84 24.35 24.16 23.57 23.70 22.37 20.66
25.23 26.52 25.05 20.21 16.92 21.07 19.38 19.01 19.74 23.35 26.39 25.84 23.18 20.92 20.70 26.01 27.97 28.53 28.71 30.24 29.76 29.94 28.22 28.46 29.09 26.29 25.49 25.20 27.09 29.74 28.39 29.92 28.59 25.80 26.23 27.12 25.83 28.20 28.66 29.60 29.71 29.78 30.25 29.18 27.95 27.86 26.69 25.59 25.11 24.99 23.20 23.01 22.21 18.25
22.98 26.74 21.03 20.72 17.83 18.27 21.41 23.86 23.37 25.57 27.20 28.26 28.64 25.92 25.33 26.11 27.22 27.84 30.59 30.62 29.50 28.81 30.89 30.78 29.54 27.66 27.59 27.72 27.26 24.64 27.49 31.23 32.41 31.95 28.89 26.33 27.38 28.02 28.04 27.95 28.34 28.68 29.34 28.26 26.81 26.28 25.49 22.56 21.09 19.86 19.46 18.40 19.11 19.02
25.81 21.44 19.98 20.06 18.38 19.35 20.66 19.62 19.46 22.41 22.31 24.55 23.34 28.13 28.24 29.36 25.58 26.67 29.05 29.47 29.04 27.59 28.57 29.20 27.48 27.74 26.72 25.77 27.44 26.82 26.42 28.41 25.31 26.82 26.52 27.37 25.56 25.07 27.98 28.16 28.93 28.90 28.82 27.59 26.04 23.82 22.57 22.59 22.80 21.87 19.88 18.85 17.29 17.45
21.28 20.60 17.79 16.04 17.12 15.73 16.99 20.96 22.83 24.27 20.08 24.31 25.43 21.42 19.90 21.41 23.12 26.13 27.64 29.56 28.34 28.55 30.20 31.60 31.34 30.81 29.18 31.65 31.95 32.51 29.03 33.15 30.27 27.65 24.02 24.34 25.98 25.43 26.53 27.35 27.23 27.74 27.63 27.07 24.90 22.48 20.66 22.15 22.46 21.70 20.07 18.97 17.30 17.00
19.14 19.06 20.72 20.72 19.07 19.57 19.45 22.12 20.26 18.07 18.28 22.59 25.52 21.39 25.53 26.62 24.73 27.18 25.54 32.05 31.96 32.05 31.54 32.31 33.73 33.87 30.96 30.95 31.81 32.53 31.68 31.42 32.50 30.02 26.83 25.39 24.88 24.41 26.39 27.67 28.18 27.69 26.39 26.51 24.46 21.93 19.69 19.56 21.09 21.11 20.36 18.43 16.86 15.93
MSLP
1028.65 1029.02 1029.34 1029.59 1029.68 1029.81 1029.85 1029.87 1030.15 1030.10 1030.03 1029.93 1029.67 1029.43 1029.28 1028.97 1028.51 1028.55 1028.89 1028.79 1028.89 1028.82 1028.13 1027.89 1027.59 1027.17 1026.58 1026.25 1025.78 1024.33 1022.62 1021.46 1020.97 1020.37 1020.22 1019.83 1019.16 1018.52 1017.86 1017.74 1017.45 1017.15 1016.56 1016.35 1015.97 1015.93 1017.40 1016.88 1015.93 1015.95 1017.51 1016.53 1015.83 1015.17
1028.51 1028.85 1029.20 1029.57 1029.67 1029.68 1029.90 1030.07 1030.10 1030.13 1030.13 1030.00 1029.78 1029.58 1029.41 1029.15 1028.81 1028.71 1029.12 1028.99 1028.89 1028.90 1028.29 1027.87 1027.23 1026.84 1026.76 1026.47 1026.58 1025.63 1025.35 1024.49 1023.98 1023.21 1022.31 1021.47 1020.68 1019.97 1019.15 1018.51 1018.11 1018.19 1018.76 1018.35 1018.59 1019.50 1019.60 1019.00 1018.48 1018.35 1017.89 1017.27 1016.44 1015.98
1028.43 1028.69 1029.06 1029.43 1029.50 1029.64 1029.81 1030.01 1030.08 1030.10 1030.17 1030.05 1029.89 1029.78 1029.57 1029.27 1029.04 1029.14 1029.42 1029.44 1029.27 1029.21 1028.26 1027.55 1026.66 1026.52 1026.50 1026.40 1026.49 1026.45 1025.47 1025.25 1024.72 1024.64 1023.72 1022.88 1022.03 1021.51 1020.59 1020.40 1019.89 1019.69 1019.56 1019.36 1019.23 1020.04 1019.99 1019.86 1019.46 1018.79 1018.25 1017.77 1017.30 1016.93
1028.20 1028.44 1028.88 1029.11 1029.33 1029.54 1029.65 1029.80 1029.96 1030.02 1030.09 1030.06 1029.96 1029.87 1029.68 1029.42 1029.18 1029.27 1029.50 1029.55 1029.86 1030.12 1029.55 1027.53 1026.56 1026.56 1026.27 1026.12 1026.22 1026.18 1025.91 1025.55 1025.22 1024.69 1024.17 1023.71 1023.12 1022.77 1022.09 1021.86 1021.19 1021.29 1020.37 1020.15 1020.29 1020.42 1020.37 1020.46 1020.18 1019.60 1019.12 1018.30 1017.38 1017.36
1027.93 1028.22 1028.57 1028.85 1029.25 1029.40 1029.49 1029.58 1029.78 1029.97 1030.00 1030.03 1029.94 1029.88 1029.71 1029.51 1029.34 1029.42 1029.75 1029.94 1030.00 1030.64 1030.32 1028.74 1027.10 1026.64 1026.40 1026.02 1025.84 1025.88 1025.81 1025.61 1025.36 1024.95 1024.78 1024.54 1023.98 1023.62 1022.66 1022.13 1022.19 1022.40 1022.03 1021.63 1021.42 1021.55 1021.18 1020.95 1020.96 1020.32 1019.91 1019.14 1018.33 1018.02
1027.53 1027.98 1028.32 1028.63 1029.02 1029.19 1029.31 1029.42 1029.68 1029.86 1029.96 1030.01 1029.91 1029.83 1029.65 1029.42 1029.27 1029.79 1030.16 1030.23 1030.15 1030.46 1030.46 1029.50 1028.05 1027.10 1026.30 1026.07 1025.88 1025.89 1025.80 1025.84 1025.89 1025.83 1025.60 1025.04 1024.69 1024.38 1023.55 1023.25 1023.75 1023.19 1022.71 1022.45 1022.15 1021.64 1021.73 1021.79 1021.89 1021.06 1020.39 1020.12 1019.70 1019.29
1027.28 1027.58 1028.00 1028.34 1028.76 1029.01 1029.16 1029.37 1029.60 1029.71 1029.87 1029.92 1029.84 1029.75 1029.52 1029.25 1029.48 1029.93 1030.45 1030.34 1030.23 1030.54 1030.69 1029.79 1028.50 1027.30 1026.95 1026.65 1026.52 1026.35 1026.19 1026.38 1026.20 1026.37 1026.12 1025.69 1025.02 1024.80 1024.64 1024.34 1024.27 1023.55 1022.94 1022.82 1022.54 1021.92 1022.09 1022.11 1022.09 1021.97 1021.59 1021.17 1020.76 1020.36
1026.90 1027.25 1027.59 1028.02 1028.49 1028.84 1028.99 1029.23 1029.48 1029.73 1029.85 1029.82 1029.76 1029.69 1029.71 1029.62 1029.72 1030.07 1030.44 1030.16 1030.40 1030.92 1031.06 1030.56 1029.33 1028.18 1027.75 1027.52 1027.35 1027.31 1026.89 1026.50 1026.48 1026.70 1026.41 1026.19 1025.49 1025.42 1025.59 1025.61 1024.97 1024.35 1023.88 1023.59 1023.46 1023.26 1023.39 1023.30 1022.90 1022.53 1022.24 1021.90 1021.41 1021.08
1026.41 1026.79 1027.23 1027.56 1028.10 1028.56 1028.73 1029.02 1029.34 1029.62 1029.74 1029.80 1029.79 1029.83 1030.16 1030.35 1030.56 1030.61 1030.35 1030.45 1030.70 1031.41 1031.25 1030.95 1030.41 1029.36 1028.37 1028.45 1028.21 1027.72 1027.68 1027.27 1027.26 1027.06 1026.85 1026.60 1026.31 1026.49 1026.76 1026.22 1025.63 1025.08 1024.68 1024.49 1024.37 1024.13 1023.99 1023.67 1023.57 1023.36 1023.09 1022.78 1022.47 1022.19
1025.97 1026.37 1026.89 1027.19 1027.77 1028.24 1028.52 1028.84 1029.21 1029.51 1029.70 1029.86 1030.22 1030.51 1030.75 1030.78 1030.27 1030.49 1030.67 1030.87 1031.10 1031.68 1031.34 1030.94 1030.83 1029.94 1029.67 1028.94 1028.56 1028.36 1028.27 1028.29 1027.72 1027.73 1027.37 1027.12 1026.86 1026.86 1026.64 1026.40 1026.04 1025.68 1025.31 1024.88 1024.42 1024.31 1024.26 1024.14 1024.09 1024.02 1023.92 1023.85 1023.61 1023.07
1025.46 1025.94 1026.53 1026.75 1027.39 1027.81 1028.23 1028.68 1029.11 1029.51 1029.85 1030.37 1030.75 1030.95 1030.80 1030.54 1030.79 1031.25 1031.46 1031.47 1031.69 1031.53 1031.19 1030.69 1030.48 1030.17 1029.87 1029.64 1029.34 1029.48 1029.00 1028.54 1028.15 1028.04 1027.53 1027.30 1026.86 1026.60 1026.54 1026.25 1025.99 1025.76 1025.53 1025.33 1025.18 1025.04 1024.91 1024.81 1024.60 1024.39 1024.13 1024.00 1023.68 1023.22
1024.93 1025.46 1026.07 1026.52 1026.99 1027.41 1027.90 1028.48 1029.06 1029.90 1030.31 1030.22 1030.36 1030.52 1030.84 1031.38 1031.61 1031.76 1031.74 1031.66 1031.20 1030.62 1030.31 1030.14 1030.01 1029.99 1029.71 1029.71 1029.42 1029.36 1028.97 1028.69 1028.33 1028.25 1027.84 1027.27 1026.80 1026.62 1026.48 1026.28 1025.96 1025.78 1025.47 1025.22 1025.09 1024.95 1024.83 1024.68 1024.50 1024.44 1024.19 1023.90 1023.79 1023.52
1024.43 1025.03 1025.64 1026.16 1026.54 1027.04 1027.75 1028.31 1028.88 1029.48 1029.95 1030.29 1030.44 1030.99 1031.28 1031.92 1031.89 1031.39 1031.04 1030.73 1030.28 1029.73 1029.51 1029.46 1029.73 1029.78 1029.72 1029.58 1029.29 1029.14 1028.83 1028.55 1028.46 1028.09 1027.48 1026.95 1026.58 1026.37 1026.26 1026.11 1025.81 1025.65 1025.38 1025.09 1024.88 1024.72 1024.49 1024.33 1024.26 1024.16 1023.94 1023.77 1023.91 1023.78
1023.83 1024.51 1025.23 1025.77 1026.24 1026.74 1027.48 1028.25 1028.82 1029.44 1030.21 1030.69 1030.96 1031.24 1031.09 1031.15 1030.54 1029.75 1029.42 1029.09 1028.95 1028.85 1028.96 1029.13 1029.43 1029.71 1029.58 1029.35 1029.24 1028.96 1028.76 1028.57 1028.07 1027.75 1026.96 1026.52 1026.15 1025.93 1025.95 1025.94 1025.87 1025.58 1025.35 1025.14 1024.89 1024.57 1024.31 1024.22 1023.97 1024.05 1023.99 1023.87 1024.01 1024.07
1023.26 1024.05 1024.75 1025.33 1025.83 1026.48 1027.24 1028.15 1028.83 1029.47 1030.28 1030.54 1030.61 1030.42 1030.04 1029.54 1029.37 1029.16 1028.99 1028.90 1028.70 1028.68 1028.81 1029.06 1029.29 1029.49 1029.29 1029.15 1029.11 1028.85 1028.60 1028.08 1027.38 1026.57 1026.07 1025.68 1025.60 1025.65 1025.59 1025.61 1025.63 1025.45 1025.21 1024.92 1024.63 1024.37 1024.05 1023.93 1023.93 1023.84 1024.07 1024.05 1024.15 1024.47
1022.76 1023.74 1024.12 1024.72 1025.40 1026.16 1027.02 1028.14 1029.06 1029.45 1029.83 1030.05 1029.85 1029.28 1029.07 1029.15 1028.93 1028.95 1028.73 1028.55 1028.33 1028.44 1028.66 1028.73 1028.94 1029.17 1029.08 1028.90 1028.76 1028.22 1027.88 1026.92 1026.06 1025.77 1025.41 1025.38 1025.28 1025.29 1025.29 1025.32 1025.28 1025.17 1024.97 1024.70 1024.34 1024.01 1023.73 1023.64 1023.68 1023.72 1024.17 1024.45 1024.66 1024.84
1022.31 1022.49 1023.01 1024.05 1024.91 1025.88 1027.01 1028.18 1028.93 1029.33 1029.32 1029.14 1028.62 1028.28 1028.41 1028.41 1028.15 1028.02 1027.95 1027.87 1027.96 1028.18 1028.29 1028.44 1028.61 1028.48 1028.74 1028.42 1027.80 1027.16 1026.27 1025.37 1025.12 1025.04 1025.07 1025.03 1025.00 1024.90 1024.97 1025.06 1024.97 1024.80 1024.58 1024.29 1024.02 1023.66 1023.38 1023.40 1023.61 1023.82 1024.10 1024.60 1024.83 1024.94
1021.25 1021.76 1022.59 1023.59 1024.64 1026.12 1027.55 1027.85 1028.16 1028.58 1028.45 1027.97 1027.96 1027.39 1027.70 1027.48 1027.44 1027.46 1027.42 1027.53 1027.61 1027.60 1027.73 1027.72 1027.76 1027.87 1027.37 1026.87 1025.94 1025.04 1024.82 1024.85 1024.91 1024.78 1024.66 1024.60 1024.58 1024.55 1024.64 1024.63 1024.53 1024.46 1024.28 1023.98 1023.73 1023.48 1023.26 1023.27 1023.53 1023.92 1024.27 1024.67 1024.83 1024.97
1020.26 1021.11 1022.06 1023.07 1024.42 1025.82 1027.01 1027.77 1027.59 1027.40 1027.10 1027.06 1026.98 1026.82 1026.95 1026.73 1026.63 1026.55 1026.64 1026.86 1026.92 1026.91 1027.01 1027.17 1026.79 1026.12 1025.41 1024.65 1024.17 1024.13 1024.18 1024.32 1024.31 1024.32 1024.28 1024.14 1024.11 1024.14 1024.12 1024.16 1024.16 1024.11 1024.00 1023.80 1023.59 1023.51 1023.55 1023.58 1023.79 1024.17 1024.52 1024.71 1024.81 1025.01
1019.90 1020.70 1021.68 1022.97 1023.75 1025.40 1026.46 1026.90 1026.98 1026.78 1026.54 1026.13 1026.15 1026.12 1026.18 1025.98 1025.84 1026.14 1026.33 1026.57 1026.83 1026.91 1026.56 1025.70 1024.34 1023.42 1023.49 1023.28 1023.21 1023.22 1023.26 1023.49 1023.84 1023.90 1023.83 1023.63 1023.58 1023.67 1023.66 1023.79 1023.82 1023.81 1023.70 1023.55 1023.59 1023.80 1023.90 1024.09 1024.31 1024.53 1024.72 1024.85 1024.85 1024.92
1019.48 1020.11 1021.55 1022.51 1023.83 1024.45 1024.72 1025.34 1025.83 1025.80 1025.50 1025.51 1025.38 1025.73 1025.60 1025.59 1025.62 1025.72 1025.91 1026.15 1026.46 1025.47 1024.45 1023.08 1022.47 1022.39 1022.39 1022.33 1022.35 1022.42 1022.61 1022.92 1022.98 1022.96 1022.82 1022.96 1023.09 1023.24 1023.27 1023.47 1023.61 1023.57 1023.54 1023.54 1023.54 1023.77 1023.93 1024.11 1024.41 1024.59 1024.73 1024.90 1024.98 1024.96
1018.31 1019.46 1021.28 1022.42 1022.89 1023.50 1023.71 1023.94 1024.14 1024.52 1025.07 1024.72 1025.04 1025.05 1025.08 1025.30 1025.28 1025.04 1024.91 1025.24 1024.30 1022.76 1022.13 1021.62 1021.07 1021.01 1021.40 1021.37 1021.27 1021.50 1021.58 1021.83 1022.04 1022.36 1022.74 1022.76 1022.76 1022.84 1022.89 1023.01 1023.26 1023.28 1023.29 1023.37 1023.51 1023.53 1023.65 1023.95 1024.27 1024.50 1024.68 1024.87 1024.94 1025.10
1017.87 1019.26 1020.64 1021.45 1022.20 1022.53 1022.64 1022.90 1023.34 1023.77 1024.05 1024.00 1024.27 1024.46 1024.43 1024.48 1024.29 1024.44 1024.12 1022.70 1021.49 1020.42 1020.11 1020.03 1019.48 1019.81 1020.08 1019.96 1020.54 1020.64 1020.91 1021.15 1021.30 1021.47 1021.64 1021.80 1021.92 1022.21 1022.44 1022.62 1022.94 1023.07 1022.92 1023.00 1023.41 1023.63 1023.83 1024.11 1024.37 1024.58 1024.72 1024.92 1025.01 1025.26
1017.18 1018.37 1019.26 1020.00 1020.36 1021.01 1021.43 1021.61 1021.92 1022.40 1022.70 1022.92 1023.24 1023.39 1023.40 1023.35 1023.88 1023.87 1022.72 1020.23 1018.90 1018.90 1019.07 1018.65 1018.72 1019.12 1019.60 1019.77 1019.75 1019.70 1019.93 1020.28 1020.42 1020.59 1020.87 1021.16 1021.48 1021.72 1022.02 1022.11 1022.36 1022.59 1022.59 1022.83 1023.21 1023.63 1023.95 1024.22 1024.44 1024.64 1024.74 1024.94 1025.16 1025.35
1016.31 1017.46 1017.92 1018.41 1018.70 1019.53 1019.93 1020.11 1020.27 1020.71 1020.99 1021.23 1021.80 1021.84 1022.27 1022.75 1022.89 1022.61 1021.09 1018.41 1017.76 1017.65 1017.50 1017.59 1017.90 1018.13 1018.42 1018.42 1018.57 1018.73 1019.00 1019.42 1019.61 1019.86 1020.07 1020.53 1020.75 1021.30 1021.57 1021.76 1021.93 1022.14 1022.40 1022.64 1023.11 1023.51 1023.92 1024.23 1024.47 1024.64 1024.87 1025.03 1025.21 1025.66
1014.14 1014.87 1015.23 1015.25 1016.58 1017.25 1017.53 1018.19 1018.48 1018.81 1019.64 1020.17 1020.20 1020.22 1020.91 1021.49 1021.94 1020.89 1018.39 1016.32 1016.53 1016.45 1016.40 1016.70 1016.84 1017.29 1017.50 1017.42 1017.59 1017.83 1017.93 1018.38 1018.83 1019.18 1019.34 1019.80 1020.09 1020.35 1020.75 1021.28 1021.63 1021.94 1022.12 1022.27 1022.69 1023.23 1023.68 1024.07 1024.37 1024.63 1024.85 1025.11 1025.39 1025.67
1011.96 1012.67 1013.15 1013.44 1014.11 1014.82 1016.08 1016.27 1016.66 1017.33 1018.02 1018.34 1018.69 1019.57 1020.10 1020.24 1019.67 1017.66 1015.80 1015.37 1015.24 1014.80 1014.84 1014.99 1015.59 1016.11 1016.22 1016.38 1016.60 1016.80 1017.08 1017.47 1017.71 1017.91 1018.27 1018.87 1019.23 1019.50 1019.85 1020.31 1020.75 1021.03 1021.38 1021.84 1022.33 1022.68 1023.17 1023.67 1024.06 1024.56 1024.93 1025.25 1025.52 1025.72
1009.83 1010.66 1011.21 1012.44 1013.27 1013.66 1014.57 1015.23 1015.69 1015.97 1016.14 1016.28 1017.09 1017.67 1017.64 1017.17 1016.28 1014.92 1014.28 1013.47 1013.40 1013.72 1014.17 1014.49 1014.79 1015.11 1015.46 1015.68 1015.91 1016.39 1017.16 1017.75 1018.15 1018.39 1018.75 1019.19 1019.38 1019.52 1019.68 1019.86 1020.11 1020.45 1021.00 1021.53 1022.04 1022.50 1022.91 1023.38 1023.99 1024.44 1024.84 1025.18 1025.60 1026.02
1008.99 1009.41 1010.59 1011.89 1012.68 1013.30 1013.30 1013.25 1013.26 1013.18 1013.11 1013.88 1014.30 1014.83 1014.86 1014.48 1013.95 1013.65 1013.40 1013.33 1013.40 1013.85 1014.41 1014.74 1014.99 1015.26 1015.50 1015.65 1015.87 1016.07 1016.38 1016.89 1017.51 1018.06 1018.35 1018.80 1019.45 1019.44 1019.48 1019.68 1020.03 1020.54 1020.79 1021.49 1021.99 1022.41 1022.86 1023.40 1023.86 1024.22 1024.71 1025.14 1025.60 1026.10
1008.20 1008.67 1009.58 1010.65 1011.43 1011.46 1010.92 1011.06 1011.49 1011.69 1011.82 1011.98 1012.34 1012.98 1013.45 1013.26 1012.88 1012.77 1013.09 1013.33 1013.33 1013.33 1013.24 1013.44 1013.88 1014.62 1015.01 1015.37 1015.62 1016.12 1016.12 1015.99 1015.96 1016.19 1016.87 1017.33 1017.63 1017.87 1018.58 1019.16 1019.66 1020.23 1020.63 1021.21 1021.93 1022.39 1022.95 1023.55 1024.08 1024.54 1024.94 1025.38 1025.68 1026.04
1007.72 1008.53 1009.23 1009.83 1010.44 1010.22 1010.30 1010.65 1011.10 1011.19 1011.35 1011.56 1011.65 1012.14 1012.15 1012.31 1012.38 1012.23 1012.37 1012.29 1012.26 1012.63 1013.14 1013.39 1013.68 1013.87 1014.09 1014.45 1014.69 1015.02 1015.38 1015.50 1015.69 1015.74 1015.88 1015.96 1016.53 1017.28 1017.78 1018.36 1018.94 1019.61 1020.24 1020.77 1021.51 1022.15 1022.80 1023.40 1023.78 1024.20 1024.62 1025.00 1025.38 1025.71
1007.94 1008.20 1008.78 1009.54 1010.06 1010.45 1010.75 1010.42 1010.71 1010.87 1011.15 1011.50 1011.42 1011.73 1012.44 1012.45 1012.24 1011.14 1010.65 1011.43 1012.00 1012.09 1011.57 1011.87 1012.14 1012.29 1012.48 1012.61 1012.93 1012.98 1012.81 1013.03 1014.09 1014.83 1015.48 1015.89 1016.20 1016.65 1017.25 1017.88 1018.46 1019.06 1019.71 1020.34 1021.02 1021.83 1022.46 1022.90 1023.27 1023.68 1024.10 1024.53 1024.97 1025.40
1008.29 1008.34 1008.37 1009.00 1009.75 1010.03 1010.08 1010.00 1010.30 1010.59 1010.86 1010.24 1010.26 1010.90 1011.02 1010.96 1010.47 1009.45 1009.65 1009.29 1009.18 1009.17 1009.55 1009.92 1010.14 1010.45 1010.82 1011.21 1011.39 1011.68 1012.13 1012.48 1012.74 1013.35 1014.07 1014.83 1015.38 1016.01 1016.71 1017.34 1017.90 1018.43 1019.11 1019.78 1020.52 1021.25 1021.88 1022.36 1022.78 1023.16 1023.56 1023.96 1024.43 1024.95
Wind_Speed
10 7 5 3 1 2 2 3 4 6 8 10 13 13 13 13 15 3 1 2 1 1 5 3 3 4 4 3 6 10 9 10 5 11 7 6 5 7 3 8 4 7 6 5 6 7 8 18 9 9 4 6 8 11
10 8 6 4 3 3 2 2 3 5 7 8 11 12 12 13 15 5 2 2 2 1 4 2 7 8 5 6 4 5 4 5 5 5 4 5 4 5 12 7 12 9 7 6 7 5 7 9 8 7 8 5 8 12
9 8 6 5 4 3 3 2 2 3 4 6 9 11 10 11 14 6 1 3 2 3 3 3 3 3 2 6 3 3 1 5 5 2 4 4 4 6 7 12 6 9 11 5 1 8 7 11 13 14 11 9 12 13
11 9 8 6 5 4 4 3 1 2 2 5 7 9 9 10 10 6 2 3 3 2 2 5 3 4 6 4 4 6 5 5 3 2 2 3 4 8 7 6 12 9 9 10 6 13 4 12 15 15 15 15 16 15
11 10 9 7 7 5 4 3 2 3 1 3 6 8 8 9 9 3 2 3 2 3 1 6 12 1 4 6 8 2 2 3 3 4 4 5 3 6 4 2 7 9 8 7 5 12 5 9 16 18 15 16 18 16
13 11 9 8 8 6 6 5 3 3 1 2 4 7 8 8 6 3 3 2 4 2 2 4 3 6 5 7 8 7 5 4 2 3 3 3 3 5 5 6 16 14 11 6 6 9 11 11 15 18 17 16 14 14
13 12 10 9 8 7 6 6 4 4 1 1 4 7 8 6 2 3 2 3 3 1 2 3 5 3 5 3 3 4 4 3 2 2 4 4 4 4 3 7 17 16 12 9 13 6 11 17 10 16 17 16 19 17
14 12 11 10 9 9 8 7 5 3 1 2 5 7 4 5 6 3 3 5 3 4 2 2 4 4 6 4 4 4 4 3 5 3 2 5 4 4 6 16 16 16 14 16 14 12 9 10 13 16 16 16 18 17
14 13 12 11 10 10 9 8 6 4 1 3 5 4 3 4 2 1 3 6 3 2 2 2 2 3 6 3 2 3 3 3 3 4 4 4 4 7 5 10 12 12 10 8 10 11 11 12 11 13 16 18 17 15
15 13 13 12 11 11 10 9 7 4 2 4 4 4 2 0 4 2 6 4 4 4 2 0 0 3 3 3 4 2 3 2 3 3 2 4 3 2 5 6 6 8 9 9 10 10 8 8 8 9 10 9 12 13
16 15 14 13 12 12 12 11 9 8 6 3 2 1 2 4 2 3 2 3 2 2 1 1 3 3 1 2 2 2 1 2 3 3 4 3 2 3 8 8 7 6 5 5 3 1 2 3 5 7 8 7 8 10
18 17 16 15 14 14 15 13 11 4 3 4 3 2 2 4 3 4 1 2 1 1 2 2 1 3 1 0 1 2 1 1 2 3 2 1 2 2 5 6 8 6 5 5 3 5 6 6 7 7 8 7 5 7
19 18 17 16 14 15 16 15 12 6 5 3 3 3 2 2 4 4 4 2 1 3 3 1 0 0 1 1 1 1 2 1 1 2 2 3 2 3 3 4 7 6 6 5 5 5 5 6 5 5 7 5 3 2
19 19 19 16 15 17 18 17 14 8 3 2 2 3 3 2 5 4 3 2 1 2 3 2 0 1 0 0 0 1 1 1 2 2 3 2 3 3 3 3 4 7 7 8 9 9 8 6 7 5 4 4 1 2
20 19 19 16 16 19 20 19 13 3 3 2 2 4 6 3 2 2 2 1 2 2 2 2 2 1 1 1 1 1 2 3 4 4 3 3 3 3 3 2 3 4 6 7 8 9 10 6 5 6 4 3 5 4
20 17 12 15 19 22 23 17 3 2 1 3 5 4 2 2 2 2 3 2 3 3 2 1 2 2 1 1 2 5 2 5 3 3 3 2 2 3 4 4 6 6 7 8 9 8 9 7 5 0 5 5 4 5
23 4 19 20 22 25 24 5 3 4 4 5 5 3 3 2 3 3 4 3 4 4 2 2 3 4 3 2 4 5 6 4 3 3 3 4 5 6 5 6 8 8 8 9 9 8 7 4 2 4 4 3 4 5
8 10 24 23 19 15 2 1 3 5 7 6 4 4 3 3 3 2 3 3 4 3 4 3 3 4 5 5 5 5 4 2 3 4 4 5 7 7 6 8 7 7 8 9 8 6 3 1 3 3 4 3 3 5
10 14 26 27 13 6 4 2 3 5 8 2 3 2 2 2 3 1 3 4 2 1 4 3 5 5 5 5 5 4 3 4 4 3 4 5 6 7 8 7 6 7 7 6 6 3 1 3 3 3 3 2 3 3
22 25 29 30 14 4 4 3 2 4 5 5 3 3 3 3 3 4 5 5 4 3 4 6 7 5 4 4 5 4 4 5 4 3 4 5 5 5 7 5 4 5 5 4 1 2 3 3 3 3 3 3 4 5
18 14 29 17 3 3 4 6 6 5 3 4 3 3 3 1 3 4 4 4 3 5 6 8 7 6 5 4 5 5 5 6 7 6 6 5 3 4 3 3 3 2 2 2 2 3 3 3 3 2 1 1 2 4
5 17 5 2 3 5 4 5 4 3 4 2 3 3 2 2 3 4 4 4 6 9 8 10 11 10 9 12 10 10 9 9 8 5 4 4 4 4 4 4 3 2 2 2 3 4 4 4 4 3 1 0 2 3
14 5 4 4 4 6 4 7 5 7 5 5 4 4 3 3 3 4 4 6 6 6 9 12 17 14 13 13 6 7 10 11 8 7 7 7 6 4 3 4 4 4 3 1 1 2 3 4 4 3 3 2 2 2
10 6 6 9 7 7 6 8 5 6 4 5 6 4 4 4 4 2 6 6 5 3 6 12 9 7 4 4 8 9 8 8 7 5 5 5 5 6 6 5 5 5 4 3 4 4 3 3 4 2 2 2 1 1
8 7 9 8 6 7 7 8 8 7 6 7 9 4 4 4 4 5 6 6 4 6 9 7 6 8 9 7 6 7 6 7 7 7 5 7 4 2 3 4 5 5 4 5 5 5 4 3 3 3 2 2 2 3
8 8 14 14 9 9 10 9 11 7 5 5 8 5 4 5 4 8 7 7 8 5 7 8 8 6 8 9 7 5 6 7 6 6 4 7 7 6 6 6 5 5 6 5 5 6 6 5 4 4 3 3 3 1
10 7 6 4 6 6 4 3 5 9 7 8 6 5 5 7 9 8 4 3 6 6 6 6 7 8 8 6 7 5 4 8 8 5 4 6 6 6 6 6 8 5 6 8 7 7 8 7 5 4 4 3 1 2
5 7 14 11 3 4 7 6 7 10 9 6 9 9 11 14 10 5 7 4 6 3 2 2 4 5 4 4 3 5 4 5 5 6 5 4 1 2 4 3 3 8 6 6 7 6 6 5 6 6 5 4 3 3
5 7 8 7 4 5 7 8 9 6 8 9 13 10 6 5 3 3 3 3 3 4 3 3 4 2 2 2 1 5 7 10 12 8 10 6 3 5 5 6 6 6 6 7 7 7 8 7 6 5 6 4 4 3
6 8 5 8 8 10 8 7 7 6 4 6 5 3 0 3 4 2 3 4 4 6 7 6 5 7 6 6 6 5 6 8 9 9 10 9 9 5 8 8 8 7 7 9 8 7 8 5 5 4 5 4 4 4
7 3 4 4 5 4 4 4 2 3 3 4 3 9 12 5 3 4 6 4 3 4 5 5 5 6 6 6 6 7 7 9 8 5 3 3 6 7 9 9 9 8 8 9 8 8 8 7 8 7 8 8 7 6
3 6 6 5 2 1 1 3 6 7 5 8 10 3 3 2 7 4 6 7 5 6 11 8 8 8 11 7 7 6 4 7 12 11 12 6 7 7 8 8 9 9 10 10 9 9 9 11 9 9 9 10 9 8
2 2 3 4 3 5 4 5 5 4 3 9 9 8 11 12 15 5 1 8 10 13 11 11 10 7 10 14 13 10 10 6 9 14 15 13 11 11 9 8 9 11 13 11 10 10 11 10 10 11 11 10 10 9
Wind_Direction
170 172 179 165 108 59 62 94 62 45 40 32 32 30 27 18 16 60 315 30 30 272 283 221 262 282 307 309 329 324 314 358 329 16 3 6 341 2 358 29 24 28 339 18 12 41 33 340 343 48 331 306 338 352
177 171 166 179 164 102 76 97 101 53 40 33 32 27 28 20 28 43 23 352 320 219 270 268 260 257 227 263 290 316 317 319 347 329 343 345 345 337 12 51 15 37 18 37 31 65 279 324 353 354 353 328 359 18
184 172 179 190 158 142 150 119 115 71 39 34 29 25 23 19 28 68 359 332 39 20 289 310 330 18 231 238 180 296 339 325 346 339 316 351 354 336 21 27 30 30 16 54 102 22 345 27 360 7 4 2 36 32
187 181 191 189 179 177 179 173 124 130 52 36 26 19 14 11 19 60 41 11 69 72 49 293 347 345 309 286 241 225 287 307 278 305 359 360 354 353 11 28 35 354 357 0 59 19 337 31 15 10 6 11 31 35
190 189 193 190 191 186 184 175 146 154 78 34 20 8 3 4 5 76 64 23 97 88 264 301 311 92 302 343 50 102 279 340 3 8 9 15 347 353 328 345 36 359 357 3 15 347 334 29 16 13 18 19 23 25
191 195 197 194 196 191 188 176 166 161 112 14 6 354 350 343 358 61 37 344 15 83 96 340 317 302 331 4 30 22 15 34 39 14 360 338 324 343 18 26 6 3 5 353 341 336 41 24 28 20 24 21 25 24
195 193 198 196 198 194 187 177 177 173 179 343 347 340 346 344 92 93 95 342 45 87 64 332 339 350 327 344 23 0 2 32 38 46 16 339 353 9 20 18 353 4 20 16 6 1 24 23 16 25 32 33 37 35
193 193 194 196 198 193 184 182 180 178 223 312 331 337 33 59 64 46 348 34 78 88 60 30 302 336 10 4 354 8 355 358 31 3 0 10 336 24 33 359 5 22 48 51 47 58 59 43 39 31 29 30 32 26
191 191 191 190 192 192 181 177 175 180 215 333 347 75 49 42 49 280 346 69 55 87 92 40 352 305 351 31 325 350 6 26 326 29 24 351 19 42 343 343 5 8 18 40 56 66 63 55 45 34 29 22 20 14
193 188 189 186 189 187 175 172 172 163 80 63 51 51 15 328 297 37 12 24 20 351 44 107 87 297 340 351 10 353 14 26 9 17 293 33 53 283 344 345 1 9 17 28 60 53 51 49 35 26 30 24 15 1
191 187 191 183 187 180 170 169 164 128 66 49 63 111 232 338 57 24 40 55 337 14 161 253 217 305 56 357 352 16 21 353 22 2 355 8 18 355 358 6 6 7 19 20 30 46 1 339 341 338 338 347 353 342
192 188 190 188 189 174 167 165 151 98 167 175 151 89 36 38 45 75 343 319 227 191 184 207 246 214 286 165 304 16 17 341 356 334 23 302 257 352 351 354 347 354 352 351 330 313 307 306 306 301 307 323 343 339
192 190 190 190 182 171 163 163 153 133 113 41 52 51 56 322 49 158 191 221 230 188 200 182 295 292 190 199 81 32 20 315 322 15 262 241 273 287 301 324 335 334 341 327 320 303 299 299 304 303 315 326 319 352
189 188 191 192 179 168 160 159 148 124 83 103 115 321 186 210 239 196 190 164 173 146 159 153 89 343 7 141 78 17 19 296 313 256 232 222 234 270 291 290 308 324 334 327 314 309 305 305 308 317 304 319 320 38
187 186 192 188 178 164 158 154 144 86 117 190 162 234 220 232 242 212 218 255 194 147 143 128 93 31 39 92 332 48 353 262 237 236 222 215 229 283 292 282 297 319 327 320 315 308 295 299 303 313 1 32 82 72
180 186 193 180 176 162 153 137 90 91 178 223 229 235 186 202 233 200 189 227 175 141 109 81 106 74 248 201 194 212 219 228 234 218 220 216 249 269 275 294 300 296 299 303 305 303 292 292 296 257 107 81 75 61
181 210 167 173 164 152 134 116 128 178 203 216 236 221 200 255 212 198 177 204 145 150 179 144 175 199 107 216 225 199 217 215 215 234 216 229 252 268 268 286 292 298 304 308 304 302 287 294 151 156 136 88 55 42
190 160 167 163 155 107 60 156 146 176 223 221 224 208 191 200 187 196 194 162 154 176 151 206 137 197 204 206 214 222 220 233 229 236 238 258 268 266 260 282 292 297 302 308 298 301 279 229 165 125 108 68 50 21
158 161 167 153 134 108 135 171 196 219 218 190 224 223 193 208 216 201 177 178 190 158 141 180 225 210 217 208 214 205 206 203 219 221 243 258 255 265 275 282 283 291 300 303 316 316 32 66 103 107 95 64 40 24
159 163 157 149 143 118 134 157 190 222 203 209 192 205 191 204 163 189 189 171 155 180 204 218 214 209 201 206 200 214 213 203 193 226 255 261 260 261 259 255 277 301 303 302 236 152 139 115 98 89 69 49 24 16
151 162 150 144 111 154 156 158 178 210 198 193 176 173 222 146 190 176 184 147 178 214 227 229 240 232 213 223 210 212 217 189 210 217 251 260 257 238 243 235 252 274 279 265 177 142 147 134 152 158 125 75 20 20
120 121 106 110 132 168 185 183 160 160 165 185 141 192 194 189 201 201 144 183 220 219 222 233 237 233 224 230 227 214 220 218 226 233 231 211 239 216 218 214 204 230 268 254 258 199 176 160 160 156 138 39 44 37
108 111 119 136 153 174 195 152 161 174 163 189 146 185 216 203 213 138 223 219 230 215 213 225 239 236 236 244 224 223 210 222 233 232 231 224 221 213 209 201 206 238 251 241 177 200 154 142 139 132 104 62 60 34
116 136 151 167 172 179 157 177 174 164 168 163 167 199 201 195 142 215 247 240 210 176 199 227 226 228 228 219 225 234 223 207 223 228 212 192 204 217 211 221 221 232 225 147 163 169 154 153 152 161 132 107 59 32
126 176 157 179 174 148 170 166 158 178 173 177 183 194 175 157 176 212 241 258 196 206 220 216 204 210 222 231 230 229 187 191 199 211 202 198 194 180 213 221 227 213 181 163 169 169 169 173 174 169 168 136 93 60
181 177 180 178 158 168 175 160 179 149 133 161 201 162 143 146 169 238 235 239 225 207 215 208 214 213 225 221 223 209 205 187 180 197 203 186 190 189 194 190 197 214 203 192 159 173 174 177 185 184 161 170 125 90
170 169 190 178 155 135 127 109 139 168 166 182 158 145 156 179 217 240 255 212 214 210 202 191 182 196 219 215 215 216 161 170 184 195 149 177 188 194 184 190 204 212 174 181 175 171 174 182 184 162 169 164 180 169
147 167 176 166 154 152 133 137 152 176 181 173 153 177 187 191 221 220 209 224 209 148 155 167 182 195 195 210 165 134 117 117 98 95 89 74 81 199 192 181 165 148 150 158 162 156 162 151 160 166 170 170 168 163
169 162 129 161 132 170 197 172 189 182 157 164 177 196 221 214 217 209 222 199 142 135 153 183 209 153 113 72 134 166 152 160 156 160 186 195 194 220 192 166 151 161 143 142 145 145 145 145 160 160 164 156 148 141
165 163 134 152 167 197 215 174 167 160 177 164 161 101 292 248 226 178 151 155 163 193 201 194 155 173 182 178 183 202 215 199 195 182 184 196 213 167 169 169 163 161 153 146 154 146 121 112 102 114 137 148 161 158
137 117 114 139 205 218 180 146 95 90 109 158 196 197 213 215 271 214 203 208 183 137 153 182 191 193 174 185 186 188 216 213 225 222 194 164 143 160 170 173 166 158 162 156 157 157 160 173 187 185 178 174 174 171
143 167 147 143 224 340 118 155 155 170 166 185 206 167 97 125 228 237 194 164 167 204 217 193 198 207 204 207 204 210 220 178 185 198 183 178 166 164 161 164 162 161 164 165 160 164 175 185 192 190 185 182 178 182
121 125 118 114 140 182 185 141 171 161 209 210 205 183 203 210 229 234 222 200 195 208 207 200 210 201 189 195 203 204 199 196 188 183 182 176 164 159 157 164 167 167 166 168 170 168 178 177 191 192 189 181 179 180